Location: Unspecified
(0.0000°N, 0.0000°E)
Time: 23:57:53
(UTC+00:00)

DMSP B5D2-3 - Pass Details

Date: 07 June 2023
Orbit: 818 x 838 km, 98.7° (Epoch: 28 September)

Event Time Altitude Azimuth Distance (km) Brightness Sun altitude
Rises 04:58:35 0° 142° (SE) 3,377 8.5 -13.9°
Reaches altitude 10° 05:01:26 10° 128° (SE) 2,437 8.0 -13.2°
Maximum altitude 05:05:35 23° 77° (ENE) 1,703 7.8 -12.3°
Drops below altitude 10° 05:09:41 10° 27° (NNE) 2,419 8.4 -11.3°
Sets 05:12:29 0° 13° (NNE) 3,345 8.9 -10.7°
